Athol, MA

10:32 AM EST on January 20, 2017 (GMT -0500)
Orange Municipal

Weather History for KORE - June, 2013

Change the Weather History Date:

Wednesday, June 19, 2013

  Actual Average Record
Temperature  
Mean Temperature 62 °F -  
Max Temperature 73 °F 76 °F 89 °F (2006)
Min Temperature 50 °F 53 °F 43 °F (1999)
Degree Days  
Heating Degree Days 4    
Growing Degree Days 12 (Base 50)    
Moisture  
Dew Point 47 °F    
Average Humidity 64    
Maximum Humidity 97    
Minimum Humidity 24    
Precipitation  
Precipitation 0.00 in - - ()
Sea Level Pressure  
Sea Level Pressure 30.03 in    
Wind  
Wind Speed 3 mph (NNW)    
Max Wind Speed 12 mph    
Max Gust Speed 16 mph    
Visibility 10 miles    
Events      
Averages and records for this station are not official NWS values.
T = Trace of Precipitation, MM = Missing Value Source: NWS Daily Summary

Daily Weather History Graph

Daily Weather History Graph

Search for Another Location

Airport or City:

Trip Planner

Search our weather history database for the weather conditions in past years. The results will help you decide how hot, cold, wet, or windy it might be!

Date:

Astronomy

Jun. 19, 2013 Rise Set
Actual Time 5:11 AM EDT 8:29 PM EDT
Civil Twilight 4:36 AM EDT 9:04 PM EDT
Nautical Twilight 3:50 AM EDT 9:50 PM EDT
Astronomical Twilight 2:55 AM EDT 10:45 PM EDT
Moon 4:15 PM EDT (6/19) 1:58 AM EDT (6/19)
Length of Visible Light 16h 28m
Length of Day
15h 18m
Waxing Gibbous, 80% of the Moon is Illuminated
Jun 19
Waxing Gibbous
Jun 23
Full
Jun 30
Last Quarter
Jul 8
New
Jul 15
First Quarter

Hourly Weather History & Observations

Time (EDT) Temp. Dew Point Humidity Pressure Visibility Wind Dir Wind Speed Gust Speed Precip Events Conditions
12:52 AM 57.0 °F 55.9 °F 96% 29.94 in 10.0 mi Calm Calm - N/A   Overcast
1:52 AM 55.9 °F 55.0 °F 97% 29.94 in 10.0 mi Calm Calm - N/A   Mostly Cloudy
2:52 AM 53.1 °F 52.0 °F 96% 29.93 in 10.0 mi NW 4.6 mph - N/A   Clear
3:52 AM 52.0 °F 51.1 °F 97% 29.94 in 10.0 mi WNW 3.5 mph - N/A   Clear
4:52 AM 51.1 °F 50.0 °F 96% 29.96 in 4.0 mi Calm Calm - N/A   Clear
5:52 AM 50.0 °F 48.9 °F 96% 29.97 in 10.0 mi Calm Calm - N/A   Clear
6:52 AM 53.1 °F 51.1 °F 93% 29.98 in 10.0 mi Calm Calm - N/A   Clear
7:52 AM 57.9 °F 48.9 °F 72% 30.01 in 10.0 mi NW 6.9 mph - N/A   Clear
8:52 AM 61.0 °F 48.9 °F 64% 30.02 in 10.0 mi NW 5.8 mph - N/A   Clear
9:52 AM 64.0 °F 50.0 °F 60% 30.03 in 10.0 mi Variable 4.6 mph - N/A   Clear
10:52 AM 66.9 °F 48.9 °F 52% 30.04 in 10.0 mi NNW 9.2 mph - N/A   Scattered Clouds
11:52 AM 69.1 °F 46.0 °F 44% 30.04 in 10.0 mi NNW 6.9 mph 16.1 mph N/A   Clear
12:52 PM 70.0 °F 45.0 °F 41% 30.04 in 10.0 mi NW 11.5 mph - N/A   Partly Cloudy
1:52 PM 72.0 °F 39.0 °F 30% 30.04 in 10.0 mi NNW 10.4 mph 16.1 mph N/A   Clear
2:52 PM 72.0 °F 33.1 °F 24% 30.05 in 10.0 mi North 8.1 mph - N/A   Clear
3:52 PM 73.9 °F 37.9 °F 27% 30.05 in 10.0 mi NNE 5.8 mph - N/A   Clear
4:52 PM 73.0 °F 37.9 °F 28% 30.04 in 10.0 mi Calm Calm - N/A   Clear
5:52 PM 73.0 °F 42.1 °F 33% 30.05 in 10.0 mi NNW 9.2 mph - N/A   Clear
6:52 PM 72.0 °F 42.1 °F 34% 30.06 in 10.0 mi North 6.9 mph - N/A   Scattered Clouds
7:52 PM 69.1 °F 46.0 °F 44% 30.08 in 10.0 mi NW 3.5 mph - N/A   Mostly Cloudy
8:52 PM 62.1 °F 48.9 °F 62% 30.11 in 10.0 mi Calm Calm - N/A   Clear
9:52 PM 55.9 °F 48.9 °F 77% 30.14 in 10.0 mi Calm Calm - N/A   Clear
10:52 PM 53.1 °F 50.0 °F 89% 30.16 in 10.0 mi Calm Calm - N/A   Clear
11:52 PM 52.0 °F 48.9 °F 89% 30.18 in 10.0 mi Calm Calm - N/A   Clear